KS4XQ Weather Reports


Display with metric or nautical units.
time (UTC)temp
F
wind
direction
speed
MPH
gust
MPH
rain 1hr
in
rain 24hr
in
rain mn
in
humidity
%
barometer
mb
20260509203504 73 192 3.0 14.0 0.00 0.00 0.00 70 1010.3
20260509203002 74 263 3.0 9.0 0.00 0.00 0.00 69 1010.2
20260509202502 75 153 2.0 9.0 0.00 0.00 0.00 68 1010.4
20260509202002 75 227 2.0 5.0 0.00 0.00 0.00 68 1010.6
20260509201503 75 206 1.0 7.0 0.00 0.00 0.00 69 1010.4
20260509201002 75 220 3.0 10.0 0.00 0.00 0.00 68 1010.5
20260509200501 75 295 3.0 10.0 0.00 0.00 0.00 66 1010.6
20260509200004 75 298 3.0 10.0 0.00 0.00 0.00 67 1010.6
20260509195504 75 291 3.0 10.0 0.00 0.00 0.00 67 1010.5
20260509194502 74 255 2.0 8.0 0.00 0.00 0.00 73 1010.6
20260509194002 73 216 3.0 10.0 0.00 0.00 0.00 71 1010.7
20260509193003 73 290 2.0 9.0 0.00 0.00 0.00 71 1010.8
20260509192502 73 288 2.0 4.0 0.00 0.00 0.00 71 1010.8
20260509191002 73 300 2.0 9.0 0.00 0.00 0.00 72 1010.9
20260509190006 73 273 1.0 5.0 0.00 0.00 0.00 72 1010.7
20260509184502 72 172 2.0 7.0 0.00 0.00 0.00 74 1010.9
20260509184004 72 267 2.0 5.0 0.00 0.00 0.00 76 1010.9
20260509183002 71 5 3.0 10.0 0.00 0.00 0.00 73 1011.0
20260509182502 71 296 2.0 10.0 0.00 0.00 0.00 74 1011.1
20260509182002 71 298 2.0 5.0 0.00 0.00 0.00 74 1011.0
20260509181504 71 286 3.0 10.0 0.00 0.00 0.00 75 1011.0
20260509181002 71 292 3.0 10.0 0.00 0.00 0.00 74 1011.1
20260509180502 71 273 3.0 7.0 0.00 0.00 0.00 74 1011.1
20260509180006 71 305 3.0 9.0 0.00 0.00 0.00 75 1011.2
20260509175502 71 259 3.0 9.0 0.00 0.00 0.00 75 1011.2
20260509175002 70 286 3.0 8.0 0.00 0.00 0.00 77 1011.3
20260509174503 70 301 3.0 9.0 0.00 0.00 0.00 75 1011.3
20260509174003 70 41 4.0 12.0 0.00 0.00 0.00 76 1011.3
20260509173502 70 243 3.0 9.0 0.00 0.00 0.00 76 1011.3
20260509173002 69 275 3.0 7.0 0.00 0.00 0.00 78 1011.4
20260509172502 69 213 3.0 8.0 0.00 0.00 0.00 78 1011.5
20260509171502 68 291 2.0 7.0 0.00 0.00 0.00 80 1011.7
20260509171002 67 287 2.0 7.0 0.00 0.00 0.00 82 1012.0
20260509170502 67 286 1.0 4.0 0.00 0.00 0.00 82 1012.1
20260509170005 67 5 1.0 7.0 0.00 0.00 0.00 83 1012.1
20260509165502 66 284 1.0 7.0 0.00 0.00 0.00 82 1012.1
20260509165002 66 315 2.0 6.0 0.00 0.00 0.00 83 1012.2
20260509164502 66 286 2.0 7.0 0.00 0.00 0.00 82 1012.2
20260509163502 66 176 1.0 4.0 0.00 0.00 0.00 83 1012.1
20260509163001 66 271 0.0 3.0 0.00 0.00 0.00 83 1012.3
20260509162502 65 271 1.0 3.0 0.00 0.00 0.00 83 1012.4
20260509162003 65 171 1.0 4.0 0.00 0.00 0.00 84 1012.4
20260509161502 65 332 1.0 4.0 0.00 0.00 0.00 84 1012.4
20260509161002 64 244 1.0 3.0 0.00 0.00 0.00 84 1012.4
20260509160501 64 280 0.0 3.0 0.00 0.00 0.00 85 1012.4
20260509155501 64 223 1.0 3.0 0.00 0.00 0.00 85 1012.7
20260509155002 64 284 2.0 4.0 0.00 0.00 0.00 84 1012.7
20260509154500 63 201 2.0 6.0 0.00 0.00 0.00 85 1012.8
20260509154001 63 288 2.0 6.0 0.00 0.00 0.00 84 1012.8
20260509153501 63 288 1.0 6.0 0.00 0.00 0.00 85 1012.9
20260509153002 63 279 1.0 4.0 0.00 0.00 0.00 85 1013.0
20260509152500 63 289 1.0 4.0 0.00 0.00 0.00 84 1012.9
20260509152001 63 286 0.0 3.0 0.00 0.00 0.00 85 1012.8
20260509151501 63 290 0.0 3.0 0.00 0.00 0.00 85 1012.7
20260509151002 63 269 0.0 2.0 0.00 0.00 0.00 85 1012.7
20260509150501 63 269 0.0 2.0 0.00 0.00 0.00 85 1012.7
20260509145501 63 260 0.0 3.0 0.00 0.00 0.00 86 1012.8
20260509145003 63 206 1.0 2.0 0.00 0.00 0.00 85 1012.6
20260509144001 63 290 1.0 3.0 0.00 0.00 0.00 85 1012.6
20260509143501 63 279 1.0 3.0 0.00 0.00 0.00 85 1012.5
20260509143003 63 290 1.0 3.0 0.00 0.00 0.00 85 1012.4
20260509142501 63 268 1.0 3.0 0.00 0.00 0.00 85 1012.3
20260509142001 63 265 1.0 3.0 0.00 0.00 0.00 86 1012.2
20260509141501 62 341 1.0 3.0 0.00 0.00 0.00 85 1012.1
20260509141003 62 285 1.0 4.0 0.00 0.00 0.00 85 1012.1
20260509140501 62 287 2.0 6.0 0.00 0.00 0.00 85 1012.1
20260509135502 62 170 1.0 4.0 0.00 0.00 0.00 88 1012.1
20260509135001 62 282 1.0 3.0 0.00 0.00 0.00 89 1012.2
20260509134500 61 282 1.0 3.0 0.00 0.00 0.00 90 1012.2
20260509134000 61 282 1.0 2.0 0.00 0.00 0.00 91 1012.0
20260509133502 61 181 0.0 2.0 0.00 0.00 0.00 92 1012.0
20260509133001 60 298 0.0 2.0 0.00 0.00 0.00 92 1011.9
20260509132501 60 298 0.0 2.0 0.00 0.00 0.00 93 1012.0
20260509131501 59 212 0.0 2.0 0.00 0.00 0.00 94 1012.2
20260509125501 58 188 0.0 3.0 0.00 0.00 0.00 96 1012.3
20260509124501 57 203 0.0 3.0 0.00 0.00 0.00 96 1012.6
20260509124003 57 297 0.0 2.0 0.00 0.00 0.00 97 1012.7
20260509123000 56 258 0.0 0.0 0.00 0.00 0.00 97 1012.7
20260509122501 56 258 0.0 0.0 0.00 0.00 0.00 97 1012.8
20260509121501 55 258 0.0 0.0 0.00 0.00 0.00 97 1012.9
20260509121001 55 258 0.0 0.0 0.00 0.00 0.00 96 1012.7
20260509120502 55 258 0.0 0.0 0.00 0.00 0.00 97 1012.9
20260509120003 55 258 0.0 0.0 0.00 0.00 0.00 97 1013.0
20260509115501 55 258 0.0 0.0 0.00 0.00 0.00 97 1012.9
20260509115002 55 258 0.0 0.0 0.00 0.00 0.00 97 1012.8
20260509114501 54 258 0.0 0.0 0.00 0.00 0.00 97 1012.8
20260509114001 54 258 0.0 0.0 0.00 0.00 0.00 97 1012.6
20260509113500 54 258 0.0 0.0 0.00 0.00 0.00 97 1012.2
20260509112503 53 258 0.0 0.0 0.00 0.00 0.00 96 1012.4
20260509112000 53 258 0.0 0.0 0.00 0.00 0.00 96 1012.4
20260509111501 53 258 0.0 0.0 0.00 0.00 0.00 96 1012.6
20260509111002 53 258 0.0 0.0 0.00 0.00 0.00 96 1012.5
20260509110501 53 258 0.0 0.0 0.00 0.00 0.00 96 1012.5
20260509105503 53 258 0.0 0.0 0.00 0.00 0.00 96 1012.4
20260509104501 53 258 0.0 0.0 0.00 0.00 0.00 96 1012.4
20260509104001 53 258 0.0 0.0 0.00 0.00 0.00 96 1012.3
20260509103502 52 258 0.0 0.0 0.00 0.00 0.00 96 1012.3
20260509103001 52 258 0.0 0.0 0.00 0.00 0.00 96 1012.4
20260509102003 52 258 0.0 0.0 0.00 0.00 0.00 96 1012.6
20260509101501 52 258 0.0 0.0 0.00 0.00 0.00 95 1012.6
20260509101002 52 258 0.0 0.0 0.00 0.00 0.00 95 1012.5
20260509100501 52 258 0.0 0.0 0.00 0.00 0.00 95 1012.5
20260509100005 52 258 0.0 0.0 0.00 0.00 0.00 95 1012.4
20260509095501 52 258 0.0 0.0 0.00 0.00 0.00 96 1012.3
20260509095001 52 258 0.0 0.0 0.00 0.00 0.00 96 1012.2
20260509094502 52 258 0.0 0.0 0.00 0.00 0.00 95 1012.2
20260509094000 52 258 0.0 0.0 0.00 0.00 0.00 95 1012.4
20260509093501 52 258 0.0 0.0 0.00 0.00 0.00 96 1012.4
20260509093002 51 258 0.0 0.0 0.00 0.00 0.00 95 1012.2
20260509092500 51 258 0.0 0.0 0.00 0.00 0.00 94 1012.0
20260509092002 51 258 0.0 0.0 0.00 0.00 0.00 94 1012.0
20260509091500 51 258 0.0 0.0 0.00 0.00 0.00 94 1012.0
20260509091000 51 258 0.0 0.0 0.00 0.00 0.00 94 1012.0
20260509090500 51 258 0.0 0.0 0.00 0.00 0.00 94 1011.8
20260509090006 51 258 0.0 0.0 0.00 0.00 0.00 94 1011.9
20260509085501 51 258 0.0 0.0 0.00 0.00 0.00 95 1012.0
20260509085000 51 258 0.0 0.0 0.00 0.00 0.00 95 1012.2
20260509084502 51 258 0.0 0.0 0.00 0.00 0.00 95 1012.2
20260509084000 50 258 0.0 0.0 0.00 0.00 0.00 94 1011.8
20260509083500 50 258 0.0 0.0 0.00 0.00 0.00 92 1011.8
20260509083002 50 258 0.0 0.0 0.00 0.00 0.00 92 1011.7
20260509082501 50 258 0.0 0.0 0.00 0.00 0.00 92 1011.7
20260509081501 51 258 0.0 0.0 0.00 0.00 0.00 92 1011.7
20260509081003 51 258 0.0 0.0 0.00 0.00 0.00 92 1011.6
20260509080500 51 258 0.0 0.0 0.00 0.00 0.00 92 1011.8
20260509080003 51 258 0.0 0.0 0.00 0.00 0.00 93 1011.9
20260509075500 51 258 0.0 0.0 0.00 0.00 0.00 94 1012.0
20260509075002 51 258 0.0 0.0 0.00 0.00 0.00 93 1012.0
20260509074002 51 258 0.0 0.0 0.00 0.00 0.00 92 1011.9
20260509073001 51 258 0.0 0.0 0.00 0.00 0.00 93 1011.9
20260509072501 51 258 0.0 0.0 0.00 0.00 0.00 92 1011.8
20260509072002 51 258 0.0 0.0 0.00 0.00 0.00 91 1011.8
20260509071501 51 258 0.0 0.0 0.00 0.00 0.00 91 1011.9
20260509070501 52 258 0.0 0.0 0.00 0.00 0.00 90 1012.3
20260509070005 52 258 0.0 0.0 0.00 0.00 0.00 90 1012.4
20260509065500 52 258 0.0 0.0 0.00 0.00 0.00 90 1012.6
20260509065000 52 258 0.0 0.0 0.00 0.00 0.00 90 1012.8
20260509064000 52 258 0.0 0.0 0.00 0.00 0.00 89 1012.9
20260509063503 52 258 0.0 0.0 0.00 0.00 0.00 89 1013.0
20260509063001 53 258 0.0 0.0 0.00 0.00 0.00 89 1013.1
20260509062500 53 258 0.0 0.0 0.00 0.00 0.00 89 1013.2
20260509062002 53 258 0.0 0.0 0.00 0.00 0.00 90 1013.3
20260509061500 53 258 0.0 0.0 0.00 0.00 0.00 90 1013.2
20260509060004 53 258 0.0 0.0 0.00 0.00 0.00 89 1013.4
20260509054459 54 258 0.0 0.0 0.00 0.00 0.00 89 1013.5
20260509054001 54 258 0.0 0.0 0.00 0.00 0.00 89 1013.5
20260509053459 54 258 0.0 0.0 0.00 0.00 0.00 89 1013.7
20260509052459 54 258 0.0 0.0 0.00 0.00 0.00 89 1013.7
20260509052002 54 258 0.0 0.0 0.00 0.00 0.00 88 1013.8
20260509051500 54 258 0.0 0.0 0.00 0.00 0.00 88 1013.7
20260509051001 54 258 0.0 0.0 0.00 0.00 0.00 87 1013.8
20260509050459 54 258 0.0 0.0 0.00 0.00 0.00 88 1014.0
20260509050005 54 258 0.0 0.0 0.00 0.00 0.00 87 1013.9
20260509045500 54 258 0.0 0.0 0.00 0.00 0.00 87 1014.0
20260509045000 55 258 0.0 0.0 0.00 0.00 0.00 87 1013.9
20260509044000 55 258 0.0 0.0 0.00 0.00 0.00 87 1014.1
20260509043500 55 258 0.0 0.0 0.00 0.00 0.00 87 1014.2
20260509043000 55 258 0.0 0.0 0.00 0.00 0.00 87 1014.3
20260509042000 55 258 0.0 0.0 0.00 0.00 0.00 86 1014.4
20260509041500 56 258 0.0 0.0 0.00 0.00 0.00 86 1014.4
20260509041002 56 258 0.0 0.0 0.00 0.00 0.00 86 1014.4
20260509040500 56 258 0.0 0.0 0.00 0.00 0.00 86 1014.4
20260509040007 56 258 0.0 0.0 0.00 0.00 0.00 86 1014.5
20260509035504 56 258 0.0 0.0 0.00 0.00 0.00 86 1014.5
20260509035005 56 258 0.0 0.0 0.00 0.00 0.00 86 1014.6
20260509034503 56 258 0.0 0.0 0.00 0.00 0.00 87 1014.8
20260509034003 56 258 0.0 0.0 0.00 0.00 0.00 87 1015.1
20260509033503 56 258 0.0 0.0 0.00 0.00 0.00 86 1015.2
20260509033005 56 258 0.0 0.0 0.00 0.00 0.00 86 1015.2
20260509032503 56 258 0.0 0.0 0.00 0.00 0.00 86 1015.0
20260509032003 56 258 0.0 0.0 0.00 0.00 0.00 85 1014.8
20260509031503 56 258 0.0 0.0 0.00 0.00 0.00 84 1014.9
20260509031005 56 258 0.0 0.0 0.00 0.00 0.00 84 1014.9
20260509030503 57 258 0.0 0.0 0.00 0.00 0.00 84 1014.8
20260509030004 57 258 0.0 0.0 0.00 0.00 0.00 83 1014.9
20260509025503 57 258 0.0 0.0 0.00 0.00 0.00 84 1014.7
20260509025002 57 258 0.0 0.0 0.00 0.00 0.00 84 1014.6
20260509024503 57 258 0.0 0.0 0.00 0.00 0.00 84 1014.7
20260509023503 57 258 0.0 0.0 0.00 0.00 0.00 84 1014.7
20260509023003 57 258 0.0 0.0 0.00 0.00 0.00 83 1014.7
20260509022005 58 258 0.0 0.0 0.00 0.00 0.00 83 1014.7
20260509021503 58 258 0.0 0.0 0.00 0.00 0.00 83 1014.6
20260509021003 58 258 0.0 0.0 0.00 0.00 0.00 82 1014.7
20260509020503 58 258 0.0 0.0 0.00 0.00 0.00 82 1014.6
20260509020005 58 258 0.0 0.0 0.00 0.00 0.00 81 1014.9
20260509015505 58 258 0.0 0.0 0.00 0.00 0.00 81 1014.8
20260509014503 59 258 0.0 0.0 0.00 0.00 0.00 81 1014.7
20260509014003 59 258 0.0 0.0 0.00 0.00 0.00 81 1014.6
20260509013003 59 258 0.0 0.0 0.00 0.00 0.00 80 1014.4
20260509012503 59 258 0.0 0.0 0.00 0.00 0.00 80 1014.4
20260509011004 60 258 0.0 0.0 0.00 0.00 0.00 79 1014.3
20260509010503 60 258 0.0 0.0 0.00 0.00 0.00 79 1014.3
20260509010005 61 258 0.0 0.0 0.00 0.00 0.00 79 1014.3
20260509005504 61 258 0.0 0.0 0.00 0.00 0.00 78 1014.2
20260509005003 61 258 0.0 0.0 0.00 0.00 0.00 78 1014.2
20260509004502 61 258 0.0 0.0 0.00 0.00 0.00 78 1014.2
20260509004003 62 258 0.0 0.0 0.00 0.00 0.00 77 1014.2
20260509002503 62 258 0.0 0.0 0.00 0.00 0.00 76 1014.3
20260509002004 63 258 0.0 0.0 0.00 0.00 0.00 75 1014.4
20260509001503 63 258 0.0 0.0 0.00 0.00 0.00 75 1014.3
20260509001005 63 258 0.0 0.0 0.00 0.00 0.00 75 1014.3
20260509000503 64 258 0.0 0.0 0.00 0.00 0.00 75 1014.4
20260509000004 64 258 0.0 0.0 0.00 0.00 0.00 75 1014.2
20260508235503 64 258 0.0 0.0 0.00 0.00 0.00 74 1014.1
20260508235002 64 258 0.0 0.0 0.00 0.00 0.00 73 1014.1
20260508234502 64 258 0.0 0.0 0.00 0.00 0.00 73 1013.9
20260508234002 65 258 0.0 0.0 0.00 0.00 0.00 73 1013.9
20260508233001 65 258 0.0 0.0 0.00 0.00 0.00 73 1014.0
20260508232502 65 258 0.0 0.0 0.00 0.00 0.00 73 1014.1
20260508231504 66 258 0.0 0.0 0.00 0.00 0.00 72 1014.2
20260508230502 66 258 0.0 0.0 0.00 0.00 0.00 71 1014.2
20260508230004 66 258 0.0 0.0 0.00 0.00 0.00 72 1014.0
20260508225503 67 258 0.0 0.0 0.00 0.00 0.00 73 1014.0
20260508225002 67 258 0.0 0.0 0.00 0.00 0.00 72 1014.1
20260508224002 66 258 0.0 0.0 0.00 0.00 0.00 71 1014.0
20260508223504 66 258 0.0 0.0 0.00 0.00 0.00 69 1014.0
20260508223002 66 258 0.0 0.0 0.00 0.00 0.00 70 1014.0
20260508222502 66 258 0.0 1.0 0.00 0.00 0.00 69 1014.1
20260508222004 66 258 0.0 2.0 0.00 0.00 0.00 69 1014.1
20260508221502 67 234 0.0 2.0 0.00 0.00 0.00 69 1013.9
20260508221002 67 292 0.0 1.0 0.00 0.00 0.00 68 1014.1
20260508220006 67 292 0.0 2.0 0.00 0.00 0.00 65 1014.0
20260508215502 67 284 0.0 4.0 0.00 0.00 0.00 65 1013.9
20260508214502 67 300 1.0 3.0 0.00 0.00 0.00 61 1013.9
20260508213502 68 284 1.0 2.0 0.00 0.00 0.00 61 1013.9
20260508213002 68 286 1.0 2.0 0.00 0.00 0.00 60 1014.0
20260508212506 69 266 1.0 4.0 0.00 0.00 0.00 58 1014.0
20260508212003 69 283 1.0 4.0 0.00 0.00 0.00 56 1014.0
20260508211502 69 276 1.0 3.0 0.00 0.00 0.00 57 1014.1
20260508211002 69 241 1.0 4.0 0.00 0.00 0.00 58 1014.0
20260508210502 69 292 1.0 4.0 0.00 0.00 0.00 56 1014.1
20260508210006 69 279 1.0 4.0 0.00 0.00 0.00 57 1013.9
20260508205502 70 251 1.0 8.0 0.00 0.00 0.00 58 1013.9
20260508205002 70 293 1.0 7.0 0.00 0.00 0.00 58 1013.9
20260508204502 70 275 1.0 5.0 0.00 0.00 0.00 57 1014.0
20260508204005 70 284 1.0 3.0 0.00 0.00 0.00 56 1014.1